Temp
15 15 16 16 16 16 16 16 16 16 16 16 16 16 16 16 16 16 16 16 16 16 16 16 15 15 15 15 15 15 15 15 16 16 15 15 15 14 14 15 15 14 14
15 15 16 16 16 16 16 16 16 16 15 15 15 15 15 15 15 15 15 15 15 15 15 15 15 15 15 15 14 15 15 15 15 15 15 15 15 15 14 14 14 14 15
15 15 15 15 15 15 15 15 15 15 15 15 15 15 15 15 15 15 15 15 15 15 15 15 15 16 15 15 15 15 15 15 15 15 15 15 15 15 15 15 15 15 15
15 15 15 15 15 16 16 15 15 15 15 15 15 15 15 15 15 15 15 15 15 15 15 15 15 15 15 15 15 15 15 15 15 15 14 15 14 15 15 15 15 15 15
15 15 15 15 15 16 16 16 16 15 15 15 15 15 15 15 15 15 15 15 15 15 15 15 15 15 15 15 15 15 15 15 15 14 13 13 14 14 15 15 14 13 14
14 14 15 15 15 15 15 15 15 15 15 15 15 15 15 15 15 15 15 15 15 14 14 14 14 14 14 14 14 14 14 14 14 13 13 13 14 14 14 14 14 14 14
14 15 15 15 15 15 15 15 15 16 16 15 15 15 15 15 15 15 15 15 15 15 14 14 14 14 14 14 14 14 14 14 14 13 13 13 13 14 14 14 14 14 14
14 15 15 15 15 15 15 16 16 16 16 16 16 16 16 16 16 16 15 15 15 15 14 14 14 14 14 14 14 13 13 13 13 13 13 13 13 14 14 14 14 14 14
14 14 15 15 15 15 16 16 16 16 16 16 16 15 15 15 15 15 15 15 15 14 14 14 14 14 14 14 14 14 14 13 13 12 12 13 13 13 13 13 13 14 14
14 14 15 15 16 16 16 16 16 15 15 15 15 15 15 15 14 14 14 14 14 14 14 14 14 14 13 13 13 13 13 13 12 12 12 12 12 13 13 13 13 13 13
14 14 15 15 15 15 15 15 15 15 15 15 15 14 14 14 14 14 14 13 13 13 13 13 13 13 13 13 13 13 12 11 11 11 11 12 12 12 12 12 12 12 12
14 15 15 15 15 15 15 15 15 14 14 14 14 14 14 14 13 13 13 13 13 13 13 13 13 13 12 11 10 11 10 11 10 10 10 11 11 11 12 12 12 12 12
15 15 15 15 15 15 15 14 14 14 14 14 14 13 13 13 13 12 12 12 12 12 12 12 12 12 12 12 12 10 12 11 10 10 11 11 11 11 10 10 11 11 11
14 15 15 15 14 14 14 14 14 14 13 13 13 13 12 12 12 12 12 12 12 12 12 12 12 12 12 12 11 11 11 11 10 11 11 11 10 10 10 10 11 11 11
14 14 14 14 14 14 14 13 13 13 13 12 12 12 11 11 11 11 11 11 11 11 11 11 11 11 11 11 11 11 10 9 10 10 11 10 9 9 10 9 10 10 10
14 14 14 14 14 13 13 13 13 13 12 12 12 11 11 11 11 11 11 11 11 11 11 11 11 11 11 11 10 10 10 10 10 9 10 9 9 9 9 9 9 9 9
14 13 13 13 13 13 13 13 13 12 12 11 11 11 11 11 11 10 10 10 10 10 10 10 10 10 10 10 10 10 9 8 8 9 9 9 9 9 9 9 9 9 9
13 13 13 13 13 13 13 13 12 12 11 11 11 10 11 10 10 10 10 10 10 10 10 10 10 10 8 9 9 8 8 8 8 8 8 8 8 8 9 9 9 9 9
13 13 13 12 12 13 12 12 12 11 11 11 10 10 10 10 9 9 9 9 9 9 10 10 10 10 9 10 9 8 8 8 8 8 8 8 8 8 8 8 9 9 9
13 13 13 12 12 12 12 12 11 11 11 10 10 10 10 9 9 9 9 9 9 9 9 10 10 10 9 9 7 6 7 7 8 8 8 8 8 8 8 8 8 9 9
13 12 12 12 12 12 11 11 11 11 11 10 9 10 9 9 9 9 8 9 9 9 9 9 9 9 9 9 6 6 8 8 8 8 8 8 8 8 8 8 8 8 8
13 12 12 12 12 12 11 11 11 10 10 9 9 9 9 9 8 9 9 9 9 9 9 9 9 9 9 9 7 7 8 7 7 8 8 7 7 7 7 8 8 8 7
12 12 12 12 12 11 11 11 11 10 10 9 9 9 9 8 9 9 8 8 9 9 9 9 9 8 8 8 8 8 8 9 7 7 8 8 7 7 7 7 7 7 7
13 12 12 12 11 11 11 11 10 10 9 9 9 9 9 8 8 8 8 8 8 8 9 8 8 8 8 8 8 8 7 7 6 7 7 7 8 7 7 7 7 7 6
13 12 12 12 11 11 10 10 10 10 9 9 9 9 8 8 8 8 8 8 8 8 8 8 8 8 7 7 7 7 7 7 6 5 6 6 6 6 6 6 6 5 5
13 12 12 11 11 10 10 10 10 9 9 9 9 9 9 8 8 8 8 8 8 8 8 8 7 7 7 7 6 6 6 6 5 4 4 5 4 6 6 6 6 6 6
Height
1552 1554 1555 1556 1557 1558 1558 1558 1559 1559 1559 1558 1558 1557 1557 1556 1556 1555 1555 1554 1553 1553 1552 1552 1551 1550 1549 1548 1547 1546 1546 1545 1545 1544 1544 1543 1543 1542 1542 1542 1541 1542 1540
1551 1554 1555 1556 1557 1558 1558 1558 1559 1559 1559 1559 1558 1558 1557 1557 1556 1556 1555 1554 1554 1553 1552 1551 1550 1550 1549 1548 1548 1547 1546 1545 1545 1544 1543 1543 1543 1542 1542 1541 1541 1540 1539
1552 1554 1555 1556 1557 1557 1558 1558 1559 1559 1559 1558 1558 1558 1557 1556 1556 1555 1555 1554 1553 1553 1552 1551 1550 1549 1548 1548 1547 1546 1546 1545 1545 1544 1544 1543 1542 1542 1541 1541 1540 1539 1539
1551 1553 1554 1555 1557 1557 1558 1558 1558 1558 1558 1558 1557 1557 1556 1556 1555 1555 1554 1553 1553 1552 1551 1551 1550 1549 1548 1547 1546 1546 1545 1544 1544 1544 1544 1543 1542 1541 1540 1540 1539 1538 1538
1550 1552 1554 1556 1557 1557 1558 1558 1558 1558 1558 1557 1557 1556 1555 1555 1554 1554 1554 1553 1552 1551 1550 1549 1548 1547 1547 1546 1545 1545 1544 1543 1543 1543 1543 1542 1542 1540 1539 1538 1538 1537 1536
1551 1552 1554 1555 1557 1557 1557 1558 1558 1557 1557 1556 1556 1555 1555 1554 1553 1552 1552 1551 1550 1550 1549 1548 1547 1546 1546 1545 1544 1544 1543 1542 1542 1543 1542 1541 1540 1538 1538 1537 1536 1536 1535
1551 1552 1553 1555 1556 1556 1557 1557 1557 1556 1556 1556 1555 1554 1553 1552 1551 1550 1550 1549 1548 1547 1547 1546 1546 1545 1544 1543 1543 1542 1541 1541 1541 1541 1541 1540 1539 1537 1536 1536 1534 1533 1533
1550 1552 1553 1554 1555 1556 1556 1556 1556 1555 1555 1554 1553 1552 1551 1550 1549 1548 1547 1546 1545 1545 1544 1544 1543 1542 1542 1541 1540 1539 1539 1539 1539 1540 1539 1538 1535 1535 1534 1534 1533 1532 1531
1549 1551 1553 1554 1555 1555 1555 1555 1555 1554 1554 1553 1552 1551 1549 1548 1547 1546 1545 1544 1543 1542 1541 1541 1540 1540 1539 1538 1538 1537 1536 1536 1537 1538 1537 1537 1534 1533 1532 1531 1531 1530 1529
1549 1551 1552 1554 1554 1555 1554 1554 1554 1553 1553 1551 1550 1549 1548 1547 1546 1544 1543 1542 1541 1540 1539 1538 1538 1537 1537 1536 1535 1535 1534 1534 1536 1535 1536 1534 1532 1531 1530 1530 1528 1528 1527
1548 1550 1551 1552 1553 1554 1554 1553 1553 1552 1551 1550 1549 1548 1546 1545 1544 1543 1541 1540 1539 1539 1538 1537 1536 1536 1535 1534 1534 1533 1533 1533 1533 1534 1534 1530 1530 1530 1528 1528 1527 1526 1525
1547 1549 1550 1551 1552 1553 1553 1553 1552 1551 1550 1549 1548 1546 1545 1544 1542 1541 1540 1539 1538 1537 1537 1536 1535 1534 1534 1533 1532 1531 1531 1531 1531 1530 1530 1528 1528 1528 1527 1526 1525 1524 1523
1546 1548 1549 1550 1551 1552 1552 1552 1551 1550 1549 1548 1546 1544 1543 1542 1541 1540 1539 1538 1537 1536 1535 1535 1534 1533 1532 1531 1530 1530 1529 1528 1528 1527 1526 1525 1526 1526 1525 1524 1524 1523 1521
1545 1547 1548 1549 1550 1551 1551 1551 1550 1549 1548 1546 1545 1543 1542 1541 1540 1539 1538 1537 1536 1536 1535 1534 1533 1532 1530 1530 1528 1528 1528 1527 1526 1525 1524 1523 1524 1525 1524 1523 1522 1522 1520
1544 1546 1547 1548 1549 1550 1550 1549 1549 1548 1546 1545 1543 1542 1541 1540 1539 1538 1537 1536 1535 1534 1534 1533 1532 1531 1530 1529 1528 1527 1527 1526 1525 1524 1523 1523 1523 1523 1522 1522 1521 1520 1519
1543 1546 1547 1547 1548 1548 1548 1548 1547 1546 1545 1544 1542 1541 1540 1539 1537 1537 1536 1535 1534 1533 1533 1532 1531 1530 1529 1528 1527 1526 1525 1526 1525 1524 1523 1523 1522 1522 1521 1521 1520 1520 1519
1542 1544 1546 1547 1547 1547 1547 1547 1546 1545 1544 1543 1542 1540 1539 1538 1538 1536 1535 1535 1534 1533 1532 1531 1530 1529 1529 1528 1526 1526 1525 1526 1525 1524 1523 1523 1522 1522 1521 1520 1519 1518 1517
1540 1542 1545 1546 1546 1546 1546 1546 1545 1544 1544 1542 1541 1539 1539 1538 1537 1536 1535 1534 1533 1532 1531 1531 1530 1529 1528 1526 1526 1525 1525 1526 1525 1524 1524 1523 1522 1522 1521 1519 1518 1516 1515
1539 1541 1543 1545 1545 1545 1545 1545 1544 1543 1542 1541 1540 1539 1538 1538 1537 1536 1535 1534 1533 1532 1531 1531 1530 1530 1528 1527 1525 1525 1525 1525 1525 1524 1523 1523 1522 1521 1519 1518 1516 1515 1513
1537 1539 1541 1543 1544 1544 1543 1543 1543 1542 1541 1540 1539 1538 1538 1537 1536 1536 1535 1534 1533 1532 1531 1530 1529 1529 1528 1527 1526 1525 1524 1524 1524 1523 1522 1521 1520 1519 1518 1517 1515 1513 1511
1536 1538 1539 1541 1542 1542 1542 1542 1542 1541 1540 1539 1538 1537 1537 1536 1536 1535 1534 1533 1532 1531 1530 1530 1529 1529 1528 1527 1527 1525 1523 1523 1522 1521 1520 1520 1518 1517 1516 1515 1513 1512 1510
1534 1536 1537 1539 1540 1540 1540 1540 1540 1540 1539 1538 1537 1536 1536 1535 1535 1534 1534 1532 1531 1530 1529 1529 1529 1529 1528 1527 1527 1526 1525 1524 1520 1519 1518 1517 1516 1515 1513 1512 1511 1509 1507
1532 1533 1535 1537 1538 1538 1538 1538 1538 1538 1538 1536 1535 1535 1534 1534 1533 1533 1532 1531 1530 1529 1529 1528 1528 1528 1527 1526 1525 1525 1524 1522 1520 1517 1515 1514 1513 1512 1511 1509 1508 1506 1505
1529 1531 1532 1534 1536 1536 1536 1537 1537 1536 1535 1534 1534 1533 1533 1532 1532 1531 1531 1530 1529 1528 1527 1527 1526 1526 1525 1524 1523 1522 1521 1520 1520 1517 1513 1512 1510 1509 1508 1506 1505 1504 1503
1526 1528 1530 1531 1533 1534 1534 1535 1535 1534 1533 1532 1532 1531 1530 1530 1530 1529 1528 1528 1527 1526 1525 1524 1524 1523 1523 1522 1521 1520 1518 1517 1516 1516 1514 1512 1508 1506 1505 1503 1502 1500 1499
1522 1524 1526 1528 1530 1531 1532 1532 1533 1532 1531 1531 1530 1529 1528 1528 1528 1527 1525 1525 1524 1524 1523 1522 1521 1520 1520 1519 1518 1517 1516 1515 1514 1513 1511 1509 1506 1504 1501 1499 1497 1495 1494
Wind_Speed
11 10 10 8 7 6 6 5 4 3 3 3 3 3 3 4 5 5 5 5 5 4 4 4 4 5 6 7 6 6 6 5 5 4 3 3 3 3 3 2 3 3 7
13 11 10 9 9 7 5 4 3 3 2 2 2 2 2 3 4 4 4 4 4 4 4 4 5 4 4 4 4 6 5 5 5 4 3 3 2 2 3 3 3 5 7
13 11 10 11 10 8 6 5 4 4 2 1 1 1 1 3 3 4 4 4 4 4 5 5 5 6 6 5 5 4 6 6 5 5 4 2 3 3 3 4 5 6 7
18 16 13 12 10 8 6 5 4 2 1 2 3 3 4 5 5 5 6 6 7 7 7 7 7 7 7 7 7 6 6 7 6 6 4 4 4 5 5 5 6 6 7
17 16 12 10 7 6 5 4 3 3 4 5 6 6 7 8 8 8 8 8 7 7 7 8 8 8 8 7 7 7 7 7 7 7 6 6 5 7 8 8 7 7 8
15 14 11 9 7 5 4 4 4 5 6 7 8 9 9 9 9 10 10 10 10 10 9 10 10 10 10 9 9 9 9 9 8 6 7 8 8 10 10 9 10 10 10
15 13 12 9 7 5 5 5 6 7 7 8 9 9 10 10 10 11 11 11 12 12 13 13 13 12 12 12 11 11 10 10 8 7 8 8 9 12 12 12 12 12 12
15 13 10 8 7 6 5 6 7 7 7 7 8 8 9 9 9 10 10 10 11 11 12 13 13 14 14 14 14 14 14 13 10 9 9 10 13 14 14 14 14 14 14
15 13 10 8 7 6 5 5 5 5 5 6 6 7 8 9 9 9 9 9 9 9 10 11 11 11 12 12 13 13 13 13 9 9 9 9 13 14 14 14 15 14 14
15 13 10 8 6 5 4 4 3 4 5 5 6 7 8 8 8 8 8 8 8 8 8 9 9 9 9 9 9 9 9 8 4 6 6 9 10 11 12 11 11 11 11
15 12 10 7 5 4 3 2 3 3 5 6 7 7 8 8 8 8 8 7 7 7 7 7 8 8 9 9 10 10 9 6 5 4 4 9 8 9 12 13 13 15 17
16 13 10 7 5 3 1 1 2 4 5 6 7 8 8 8 7 6 6 6 6 6 7 7 8 8 9 8 8 9 7 9 8 7 7 10 11 13 15 17 17 17 17
16 12 9 6 4 3 1 1 2 4 6 8 9 9 8 7 5 4 4 4 5 5 6 6 7 8 8 7 8 7 9 8 6 6 9 8 7 8 10 12 11 7 8
15 12 9 7 5 2 1 1 3 5 7 8 9 8 6 6 5 4 4 4 4 5 6 6 6 7 7 6 6 5 5 4 4 4 5 5 2 1 3 1 2 3 5
14 11 9 7 5 2 1 2 4 6 7 8 9 8 7 5 4 4 4 4 5 5 6 6 6 6 6 6 5 3 3 2 3 2 1 1 1 4 5 3 5 5 2
14 11 9 7 4 2 1 3 5 6 8 9 8 8 6 5 4 3 4 5 6 6 7 7 7 6 6 4 3 2 1 1 2 3 2 3 2 3 2 3 2 3 3
13 11 9 6 4 1 1 4 5 6 8 8 8 7 6 4 3 3 3 4 5 6 6 6 6 6 5 2 2 0 2 2 2 2 2 2 3 3 3 4 4 4 4
13 11 9 6 4 2 2 4 5 6 7 8 7 7 5 3 2 3 4 5 5 5 6 6 6 6 5 2 1 2 4 2 0 1 2 3 4 4 5 6 7 8 8
13 11 9 6 5 4 4 5 6 6 7 7 6 6 4 4 3 4 4 4 5 5 6 6 7 7 5 4 2 2 2 2 2 2 3 4 5 6 7 7 8 9 9
13 12 9 7 6 5 5 6 5 6 8 7 5 5 4 4 4 3 3 3 4 5 6 6 5 4 3 2 0 1 3 4 5 6 6 8 8 9 8 9 10 10 10
14 13 9 7 6 5 5 5 5 6 8 6 5 4 4 4 3 3 4 4 4 5 6 6 5 5 4 4 2 4 5 7 9 10 10 11 11 11 10 10 10 10 10
14 13 10 8 7 6 6 5 5 6 7 6 5 5 4 4 4 4 4 5 5 6 6 6 6 6 6 5 4 5 5 7 10 11 12 13 13 12 12 11 11 11 10
17 14 11 10 8 6 6 6 6 7 7 6 6 6 6 6 5 6 7 7 7 7 7 7 7 6 6 7 6 5 4 4 5 12 11 13 13 14 14 13 14 12 11
17 15 14 12 10 8 7 7 7 7 6 6 7 8 8 8 8 9 9 8 9 9 8 8 7 8 8 8 9 9 10 12 5 6 9 12 15 15 15 18 16 14 13
18 17 16 15 12 9 9 8 8 7 7 7 8 9 10 10 11 11 10 11 11 11 11 10 10 10 10 10 11 12 12 13 13 11 12 9 12 17 18 18 17 16 15
20 20 18 18 14 12 10 10 9 8 8 9 10 11 12 13 13 13 13 13 13 13 13 13 13 13 12 13 13 13 13 12 10 11 11 12 14 17 20 20 20 19 17
Wind_Direction
162 162 162 157 159 160 154 141 130 113 87 76 71 66 51 42 36 32 26 28 31 28 11 16 21 13 1 359 2 6 13 20 26 28 28 42 50 44 31 25 25 5 345
148 153 157 163 167 165 162 157 152 119 102 83 55 52 35 9 2 2 354 355 1 357 358 360 1 352 338 332 337 338 335 350 357 360 7 15 357 342 315 322 344 323 339
139 146 157 161 164 160 156 156 155 152 155 153 110 68 6 343 330 321 323 320 315 317 325 329 328 329 331 334 331 319 309 310 322 337 342 336 311 319 298 305 320 327 337
151 149 159 166 162 156 157 160 168 175 195 233 265 272 287 299 301 302 305 304 311 311 313 313 311 312 314 316 314 314 296 289 293 302 328 314 302 298 298 302 302 308 320
161 164 160 156 165 170 172 180 202 244 267 271 275 285 293 296 298 296 295 303 309 310 309 307 305 306 307 307 305 305 302 294 291 294 290 297 302 296 292 290 297 305 307
161 171 167 167 175 189 207 227 246 261 271 278 285 289 292 291 291 292 293 293 291 292 293 293 298 301 303 303 304 306 305 301 301 298 293 294 293 284 288 294 299 298 300
163 168 174 177 190 205 220 244 258 269 278 285 289 290 291 292 292 288 285 283 283 282 283 288 290 294 296 297 299 298 298 300 301 293 289 288 290 288 289 290 286 289 291
177 177 181 188 198 217 240 253 266 278 285 291 295 298 299 296 292 288 286 283 282 281 280 282 283 284 285 286 285 286 286 287 301 292 294 294 285 296 293 289 287 289 290
173 179 184 196 210 228 248 264 277 285 295 303 303 301 300 297 296 295 294 290 286 285 287 287 288 289 287 286 287 285 285 284 288 280 293 296 289 295 295 296 296 295 294
176 179 186 195 207 225 246 261 281 296 306 309 308 307 306 304 304 303 299 298 297 294 291 292 294 294 295 296 296 297 301 312 303 306 308 273 292 296 295 288 293 299 307
176 181 187 194 205 216 239 277 303 320 323 321 319 320 320 316 311 306 304 303 302 301 301 302 299 299 300 300 299 300 304 303 306 303 292 278 278 283 289 293 297 296 295
177 181 187 190 193 198 227 307 337 338 333 329 328 329 327 325 322 317 312 308 309 312 312 309 308 306 306 300 305 305 302 296 296 289 286 277 274 277 286 292 297 302 305
177 181 182 182 182 182 186 2 351 341 338 337 336 335 333 329 329 329 325 325 327 325 325 328 324 317 311 305 305 305 299 300 301 284 293 282 282 283 288 300 319 309 299
177 180 180 179 176 172 133 5 352 344 341 340 338 336 336 336 336 340 342 340 338 339 337 336 331 325 323 319 309 305 311 318 306 309 287 274 280 17 27 56 267 278 314
180 181 179 177 173 164 98 4 351 346 344 343 343 343 348 345 350 353 352 352 352 350 348 343 341 337 336 334 331 320 327 299 329 346 342 111 237 220 226 224 238 240 292
182 184 181 179 177 159 26 355 347 344 345 346 345 346 349 356 1 1 3 360 358 358 353 351 348 350 350 340 320 279 295 295 40 37 45 38 7 14 331 270 300 273 239
183 185 186 187 188 189 346 342 336 338 344 341 340 347 351 352 352 354 354 351 353 356 357 1 5 6 6 350 322 226 94 82 50 36 24 18 10 359 347 332 321 320 319
186 187 190 198 206 234 302 319 322 333 338 335 337 346 342 331 329 335 344 346 351 354 360 2 3 11 24 4 225 143 148 138 153 350 352 353 347 340 329 323 322 319 316
186 191 197 209 222 247 280 305 313 323 332 329 334 336 327 319 327 334 336 349 353 351 355 359 359 357 349 333 12 112 137 191 250 289 294 300 304 311 312 313 314 310 305
191 197 204 218 232 254 278 296 299 315 324 321 326 321 313 319 329 332 339 344 341 343 351 353 351 345 343 324 348 219 218 241 256 266 277 284 290 300 302 311 313 308 302
198 203 211 224 232 251 279 286 285 307 318 313 316 309 302 314 314 315 318 322 334 340 340 338 334 321 317 314 303 302 297 264 264 266 270 276 282 288 292 299 304 300 297
207 208 214 218 230 253 274 270 279 304 310 308 309 306 296 303 299 306 303 315 324 329 329 326 325 315 308 298 262 264 273 270 269 263 269 272 277 280 282 288 299 292 286
212 211 210 218 235 257 271 279 289 304 311 311 302 297 291 294 297 289 290 304 312 315 316 316 314 307 300 291 275 249 273 261 276 277 271 271 272 278 285 289 298 291 287
216 211 213 222 237 257 274 279 289 300 303 296 291 293 290 288 286 282 288 295 298 302 303 303 301 295 291 287 283 268 260 264 275 287 281 272 278 281 282 294 296 291 289
219 215 219 226 238 254 269 280 285 289 293 300 297 291 287 286 281 281 284 287 288 290 292 295 294 291 289 286 283 283 278 275 269 265 284 281 286 284 288 288 286 288 283
218 218 221 228 237 252 266 274 275 279 288 299 301 299 290 283 280 280 279 281 283 285 287 288 287 287 287 285 283 280 276 273 272 269 274 285 283 282 290 287 286 284 282